Home > Weather > Heide > Past weeks

Flag for Germany Weather for the Past 2 Weeks in Heide, Schleswig-Holstein, Germany

Now
48 °F

Passing clouds.


Feels Like: 44 °F
Forecast: 38 / 60 °F
Wind: 10 mph from Northwest

Location: Hohn

Current Time: May 4, 2016 at 10:42:24 AM

Latest Report: May 4, 2016 at 9:20 AM


Visibility: N/A

Pressure: 30.39 "Hg

Humidity: 76%

Dew Point: 41 °F

Location of HeideLocation

Historic Weather in Heide — Graph

°F

Heide Temperature Yesterday

Maximum temperature yesterday: 54 °F (at 1:20 PM)
Minimum temperature yesterday: 43 °F (at 10:20 PM)
Average temperature yesterday: 49 °F

High & Low Weather Summary for the Past Weeks

 TemperatureHumidityPressure
High64 °F (May 2, 2:20 PM)100% (Apr 21, 4:20 AM)30.42 "Hg (Apr 21, 4:20 AM)
Low30 °F (Apr 23, 4:20 AM)28% (Apr 23, 12:20 PM)29.36 "Hg (Apr 26, 4:20 AM)
Average43 °F78%29.96 "Hg
* Reported Apr 19 8:20 AM — May 4 8:20 AM, Heide, Weather by CustomWeather, © 2016

Note: Actual official high and low records may vary slightly from our data, if they occured in-between our weather recording intervals... More about our weather records

Advertising

Heide Weather History for the Previous 24 Hours

Scroll right to see more
 ConditionsComfort  
Time TempWeatherWind HumidityBarometerVisibility
8:20 AM
Wed, May 4
46 °FPassing clouds.6 mph82%30.36 "HgN/A
7:20 AM41 °FFog.6 mph100%30.36 "Hg5 mi
6:20 AM36 °FFog.3 mph93%30.36 "Hg3 mi
5:20 AM36 °FFog.6 mph100%30.33 "Hg3 mi
4:20 AM36 °FFog.3 mph93%30.33 "Hg5 mi
3:20 AM36 °FPassing clouds.2 mph93%30.30 "HgN/A
2:20 AM37 °FPassing clouds.3 mph93%30.30 "HgN/A
1:20 AM39 °FPassing clouds.5 mph93%30.30 "HgN/A
12:20 AM41 °FPassing clouds.6 mph87%30.30 "HgN/A
11:20 PM
Tue, May 3
43 °FPassing clouds.7 mph87%30.27 "HgN/A
10:20 PM43 °FPassing clouds.7 mph87%30.24 "HgN/A
9:20 PM46 °FPassing clouds.8 mph76%30.24 "HgN/A
8:20 PM48 °FPassing clouds.13 mph71%30.21 "HgN/A
7:20 PM50 °FPassing clouds.18 mph67%30.18 "HgN/A
6:20 PM52 °FPassing clouds.18 mph58%30.18 "HgN/A
5:20 PM54 °FPassing clouds.20 mph58%30.18 "HgN/A
4:20 PM54 °FPassing clouds.21 mph63%30.15 "HgN/A
3:20 PM54 °FScattered clouds.17 mph63%30.12 "HgN/A
2:20 PM54 °FPartly sunny.17 mph67%30.12 "HgN/A
1:20 PM54 °FBroken clouds.16 mph67%30.09 "HgN/A
12:20 PM52 °FBroken clouds.14 mph82%30.09 "HgN/A
11:20 AM48 °FBroken clouds.9 mph94%30.07 "HgN/A
10:20 AM48 °FLight rain. Broken clouds.13 mph87%30.04 "Hg5 mi
Weather by CustomWeather, © 2016

See weather overviewHow to use our weather pages